[[{"header":{"parameterUnit":"m.s-1","parameterCategory":1,"la1":30.2991,"la2":30.254,"lo1":-89.0895,"lo2":-89.0444,"dy":0.0017,"dx":0.0017,"nx":28,"ny":28,"refTime":"2026-02-01T03:00:00:Z","depth":0,"parameterNumber":2,"parameterNumberName":"U-component_of_WINDS"},"data":[0,0,0,0,0,0,0,0,0,0,0,0,0,0,0,0,0,0,0,0,0,0,0,0,0,0,0,0,0,0,0,0,0,0,0,0,0,0,0,0,0,0,0,0,0,0,0,0,0,0,0,0,0,0,0,0,0,0,2.431,2.431,0,2.432,2.432,2.432,2.4304,2.4303,2.4303,2.4302,2.4311,2.4312,2.4313,0,0,0,0,0,0,0,0,0,0,0,0,0,2.4276,2.4277,2.431,2.431,2.431,2.432,2.432,2.432,2.4304,2.4303,2.4302,2.4302,2.4311,2.4312,2.4313,0,0,0,0,0,0,0,0,0,0,0,0,0,2.4289,2.4277,2.431,2.4303,2.4303,2.432,2.432,2.432,2.4304,2.4303,2.4302,2.4301,2.4311,2.4312,2.4313,2.4337,0,0,2.4317,2.4317,0,0,0,0,0,0,0,0,2.4288,2.429,2.4304,2.4304,2.4303,2.431,2.4311,2.4326,2.4304,2.4303,2.4302,2.4301,2.4311,2.4312,2.4316,2.4337,2.4338,2.4317,2.4317,2.4318,2.4318,0,0,0,0,0,0,0,2.4288,2.429,2.4314,2.4304,2.4304,2.43,2.43,2.4314,2.4312,2.4303,2.4302,2.4304,2.4311,2.4315,2.4316,2.4338,2.4317,2.4318,2.4318,2.4319,2.4379,2.438,0,0,0,0,0,0,2.4288,2.4289,2.4313,2.4314,2.4294,2.4301,2.4302,2.4308,2.4312,2.4311,2.4304,2.4303,2.4314,2.4315,2.4316,2.4344,2.4318,2.4319,2.432,2.4378,2.4379,2.438,0,0,0,0,0,0,2.4287,2.429,2.4313,2.4301,2.4304,2.4302,2.431,2.4309,2.4313,2.4312,2.4312,2.4309,2.4313,2.4315,2.4332,2.4344,2.4319,2.4321,2.4377,2.4379,2.438,2.44,0,0,0,0,0,0,2.4286,2.429,2.4299,2.4302,2.4305,2.4328,2.431,2.431,2.4315,2.4313,2.4317,2.4316,2.4312,2.433,2.4333,2.4345,2.4321,2.4376,2.4378,2.4379,2.4398,2.4402,2.4405,0,0,0,0,0,2.4285,2.4304,2.4299,2.4302,2.4316,2.4329,2.4331,2.4326,2.4316,2.4325,2.4325,2.4316,2.4343,2.4332,2.4335,2.4348,2.4375,2.4377,2.4379,2.4396,2.4401,2.4405,0,0,0,0,0,0,2.4301,2.4304,2.4299,2.4319,2.4324,2.4326,2.4337,2.4331,2.4338,2.4336,2.433,2.4331,2.4349,2.4351,2.4339,2.4371,2.4357,2.436,2.4369,2.4374,2.4377,2.4376,2.4322,0,0,0,0,0,2.4308,2.4318,2.432,2.4338,2.434,2.4339,2.4344,2.434,2.4345,2.4347,2.4348,2.4352,2.4362,2.4368,2.4377,2.4399,2.4399,2.4409,2.4413,2.4415,2.4417,2.4429,2.4433,2.4387,2.4387,2.4387,0,0,2.432,2.4323,2.433,2.4341,2.4344,2.4355,2.434,2.4352,2.4361,2.4348,2.4364,2.4366,2.4371,2.439,2.4399,2.4392,2.4431,2.4418,2.442,2.4421,2.4431,2.4436,2.444,2.4388,2.4388,2.4388,0,0,2.4348,2.4352,2.4367,2.4371,2.4376,2.4375,2.4379,2.4382,2.4383,2.4399,2.439,2.44,2.4416,2.442,2.4424,2.4455,2.4448,2.4459,2.4476,2.4487,2.4491,2.4494,2.4504,2.4508,2.4461,2.4461,2.4461,0,2.4362,2.4379,2.4375,2.4388,2.4393,2.4384,2.4399,2.4403,2.4411,2.4415,2.4407,2.4428,2.4431,2.4451,2.4459,2.4463,2.4466,2.4457,2.4491,2.4494,2.4497,2.4506,2.451,2.4462,2.4462,2.4462,2.4462,0,2.4396,2.4408,2.442,2.4428,2.4435,2.4449,2.4447,2.4454,2.4451,2.445,2.4467,2.447,2.4479,2.4484,2.4481,2.4504,2.45,2.4492,2.4477,2.4502,2.4511,2.4515,2.4464,2.4463,2.4463,2.4463,0,0,2.4433,2.444,2.4444,2.4448,2.4454,2.4463,2.4477,2.4487,2.4493,2.4499,2.451,2.4525,2.4518,2.4523,2.452,2.453,2.4554,2.452,2.452,2.4526,2.458,2.4585,2.4589,2.4549,2.455,2.4551,2.4579,0,2.446,2.4484,2.4482,2.4505,2.4515,2.4507,2.452,2.4525,2.4525,2.4534,2.4535,2.4545,2.4535,2.4538,2.4548,2.4549,2.4564,2.4547,2.4559,2.456,2.4557,2.4594,2.4599,2.4626,2.4583,2.4583,2.4584,0,2.4495,2.4503,2.4527,2.4532,2.4536,2.4547,2.4556,2.4565,2.4571,2.4571,2.4577,2.4572,2.4586,2.4573,2.4592,2.458,2.4585,2.4587,2.4588,2.4587,2.4572,2.4594,2.4634,2.4638,2.4589,2.4589,2.4589,0,2.4518,2.4535,2.4551,2.4555,2.4562,2.457,2.4573,2.4578,2.4584,2.4592,2.4596,2.4605,2.461,2.4617,2.4615,2.4606,2.4635,2.4622,2.4635,2.4635,2.4639,2.4639,2.468,2.4645,2.4645,2.4645,2.4645,0,2.4548,2.4562,2.4562,2.4572,2.4589,2.4586,2.4602,2.4605,2.461,2.462,2.4614,2.4624,2.4621,2.4631,2.463,2.4646,2.4648,2.4648,2.4647,2.4648,2.4647,2.465,2.4647,2.4646,2.4646,2.4646,2.4646,0,2.4575,2.4576,2.4593,2.4599,2.4601,2.4612,2.4617,2.4626,2.4627,2.464,2.4643,2.4644,2.4656,2.4655,2.4668,2.4667,2.4686,2.4684,2.4684,2.4683,2.4695,2.4694,2.4738,2.4744,2.4707,2.4707,2.4707,0,2.4594,2.4605,2.4612,2.4618,2.4622,2.4633,2.4639,2.4638,2.4645,2.4653,2.4662,2.4673,2.4681,2.4699,2.4701,2.4711,2.4708,2.4723,2.4709,2.471,2.4707,2.4706,2.4707,2.4725,2.4726,2.4726,2.4726,0,2.4625,2.4626,2.4635,2.4645,2.4653,2.4661,2.4668,2.4674,2.4673,2.4681,2.4693,2.47,2.4713,2.4724,2.4733,2.4736,2.4731,2.4731,2.4734,2.4734,2.4733,2.4733,2.469,2.4729,2.4729,2.4729,2.4729,2.4728,2.4648,2.4658,2.4664,2.4675,2.4681,2.4688,2.4697,2.47,2.4709,2.472,2.4719,2.4732,2.4739,2.4751,2.4755,2.4765,2.476,2.4765,2.4766,2.4767,2.4768,2.4733,2.4767,2.4767,2.4767,2.4767,2.4767,0,2.4679,2.4683,2.4693,2.4704,2.4713,2.4708,2.4716,2.4724,2.4735,2.4742,2.4751,2.4764,2.4775,2.4778,2.4789,2.4796,2.4794,2.4799,2.4797,2.4798,2.4772,2.4768,2.48,2.48,2.48,2.48,2.48,2.48,2.4696,2.4712,2.4713,2.4732,2.4736,2.4749,2.4754,2.476,2.4765,2.4781,2.479,2.4793,2.4798,2.4809,2.4818,2.4819,2.4823,2.4828,2.4828,2.4803,2.48,2.4797,2.4792,2.4829,2.483,2.4853,2.4853,2.4853]},{"header":{"parameterUnit":"m.s-1","parameterCategory":1,"la1":30.2991,"la2":30.254,"lo1":-89.0895,"lo2":-89.0444,"dy":0.0017,"dx":0.0017,"nx":28,"ny":28,"refTime":"2026-02-01T03:00:00:Z","depth":0,"parameterNumber":3,"parameterNumberName":"V-component_of_WINDS"},"data":[0,0,0,0,0,0,0,0,0,0,0,0,0,0,0,0,0,0,0,0,0,0,0,0,0,0,0,0,0,0,0,0,0,0,0,0,0,0,0,0,0,0,0,0,0,0,0,0,0,0,0,0,0,0,0,0,0,0,-6.3609,-6.3611,0,-6.3818,-6.3821,-6.3823,-6.3783,-6.378,-6.3776,-6.3772,-6.3984,-6.3993,-6.4002,0,0,0,0,0,0,0,0,0,0,0,0,0,-6.3171,-6.3179,-6.3608,-6.3611,-6.3614,-6.3818,-6.3821,-6.3824,-6.3784,-6.3779,-6.3775,-6.3771,-6.3981,-6.3992,-6.4003,0,0,0,0,0,0,0,0,0,0,0,0,0,-6.3369,-6.3182,-6.3608,-6.3619,-6.3622,-6.3817,-6.3821,-6.3824,-6.3785,-6.3779,-6.3774,-6.3768,-6.3977,-6.3991,-6.4004,-6.4202,0,0,-6.4046,-6.4052,0,0,0,0,0,0,0,0,-6.3358,-6.3385,-6.3615,-6.3618,-6.3622,-6.3769,-6.3744,-6.3951,-6.3786,-6.3723,-6.3772,-6.3766,-6.3917,-6.3935,-6.3987,-6.4211,-6.422,-6.4047,-6.4056,-6.4062,-6.4065,0,0,0,0,0,0,0,-6.3344,-6.3376,-6.3691,-6.3618,-6.3623,-6.3612,-6.3634,-6.3783,-6.3849,-6.3728,-6.3726,-6.3751,-6.3918,-6.3974,-6.3991,-6.4224,-6.4047,-6.4059,-6.4068,-6.4073,-6.462,-6.4626,0,0,0,0,0,0,-6.3327,-6.3364,-6.3685,-6.3698,-6.3473,-6.3624,-6.3649,-6.3727,-6.3847,-6.386,-6.3756,-6.3749,-6.3953,-6.3975,-6.3999,-6.4238,-6.4061,-6.4074,-6.4082,-6.4614,-6.4622,-6.4629,0,0,0,0,0,0,-6.3318,-6.3356,-6.3676,-6.3531,-6.3571,-6.3638,-6.3727,-6.3735,-6.379,-6.3868,-6.3879,-6.3801,-6.3949,-6.3979,-6.4152,-6.4245,-6.408,-6.4093,-6.4607,-6.4616,-6.4625,-6.4718,0,0,0,0,0,0,-6.3305,-6.3353,-6.3429,-6.3533,-6.3579,-6.3827,-6.3732,-6.3743,-6.3815,-6.3807,-6.3914,-6.3926,-6.3947,-6.4131,-6.4165,-6.4261,-6.4104,-6.4599,-6.4611,-6.4622,-6.4707,-6.4729,-6.4748,0,0,0,0,0,-6.329,-6.3446,-6.3434,-6.3472,-6.3676,-6.3832,-6.3859,-6.3881,-6.3822,-6.3899,-6.3949,-6.3922,-6.4229,-6.4149,-6.4187,-6.4288,-6.4593,-6.4608,-6.4621,-6.4697,-6.4725,-6.4748,0,0,0,0,0,0,-6.3351,-6.346,-6.3447,-6.3642,-6.3728,-6.3825,-6.3923,-6.391,-6.4014,-6.4002,-6.4025,-6.4049,-6.4224,-6.4273,-6.4183,-6.4485,-6.4402,-6.4425,-6.4447,-6.4474,-6.4494,-6.4479,-6.4115,0,0,0,0,0,-6.3388,-6.3507,-6.3595,-6.3758,-6.3802,-6.3856,-6.3925,-6.3935,-6.4025,-6.4061,-6.4123,-6.4211,-6.4327,-6.4403,-6.4514,-6.4713,-6.4735,-6.4801,-6.4822,-6.4838,-6.4858,-6.4967,-6.4997,-6.4675,-6.4675,-6.4675,0,0,-6.3464,-6.3538,-6.3612,-6.3773,-6.3841,-6.3963,-6.3887,-6.4019,-6.411,-6.4081,-6.4248,-6.4296,-6.4395,-6.4582,-6.4667,-6.4628,-6.4951,-6.4857,-6.4869,-6.488,-6.4984,-6.5015,-6.5042,-6.4685,-6.4683,-6.4682,0,0,-6.3665,-6.3733,-6.3877,-6.3947,-6.4052,-6.4086,-6.412,-6.422,-6.4252,-6.442,-6.4401,-6.4508,-6.4707,-6.4779,-6.4841,-6.507,-6.5049,-6.5105,-6.5214,-6.532,-6.5346,-6.5368,-6.545,-6.5479,-6.5124,-6.5124,-6.5124,0,-6.3746,-6.3931,-6.3952,-6.4087,-6.4158,-6.4138,-6.4284,-6.435,-6.4485,-6.4535,-6.4489,-6.4739,-6.4804,-6.5007,-6.5063,-6.5114,-6.5154,-6.5093,-6.534,-6.5363,-6.5385,-6.5463,-6.5494,-6.513,-6.5129,-6.5129,-6.5128,0,-6.4026,-6.4154,-6.4257,-6.4389,-6.4472,-6.4611,-6.4653,-6.4734,-6.4736,-6.4775,-6.4946,-6.5024,-6.515,-6.5199,-6.5202,-6.5403,-6.5375,-6.5335,-6.5252,-6.5421,-6.5495,-6.5525,-6.5139,-6.5137,-6.5135,-6.5133,0,0,-6.4272,-6.4415,-6.4452,-6.4512,-6.4626,-6.4725,-6.4863,-6.4988,-6.5057,-6.515,-6.5266,-6.5435,-6.5399,-6.547,-6.5481,-6.5574,-6.575,-6.5522,-6.5524,-6.5562,-6.5976,-6.6006,-6.6041,-6.5736,-6.5742,-6.5747,-6.5968,0,-6.4485,-6.473,-6.4753,-6.4972,-6.509,-6.5073,-6.5193,-6.5275,-6.5315,-6.542,-6.5463,-6.5584,-6.5526,-6.5569,-6.566,-6.5709,-6.5833,-6.5693,-6.5844,-6.5849,-6.5821,-6.6079,-6.6112,-6.6316,-6.5997,-6.6002,-6.6005,0,-6.4765,-6.4869,-6.51,-6.5197,-6.5248,-6.5356,-6.5472,-6.5573,-6.5666,-6.5688,-6.5767,-6.5766,-6.5907,-6.5819,-6.6013,-6.5917,-6.598,-6.6014,-6.6022,-6.6038,-6.5938,-6.6102,-6.6382,-6.6413,-6.6051,-6.6047,-6.6044,0,-6.4923,-6.5119,-6.5283,-6.5335,-6.5452,-6.5529,-6.5581,-6.5668,-6.5741,-6.5842,-6.589,-6.6006,-6.6069,-6.6158,-6.6188,-6.6121,-6.6381,-6.6295,-6.6403,-6.6403,-6.646,-6.6456,-6.6755,-6.6499,-6.6499,-6.6498,-6.6498,0,-6.5158,-6.53,-6.5356,-6.5457,-6.5615,-6.564,-6.5796,-6.5844,-6.5922,-6.6031,-6.6022,-6.6124,-6.6157,-6.6265,-6.6288,-6.6446,-6.6474,-6.6496,-6.6501,-6.6498,-6.6495,-6.654,-6.6526,-6.6506,-6.6505,-6.6503,-6.6502,0,-6.5361,-6.5404,-6.5582,-6.5678,-6.5706,-6.5819,-6.5901,-6.5998,-6.6036,-6.6174,-6.6208,-6.6267,-6.6394,-6.6432,-6.6584,-6.6599,-6.6784,-6.6776,-6.6754,-6.6754,-6.686,-6.685,-6.7199,-6.7246,-6.6959,-6.6962,-6.6964,0,-6.5509,-6.5618,-6.5727,-6.58,-6.5856,-6.5974,-6.6049,-6.6077,-6.6155,-6.6269,-6.6352,-6.6477,-6.6579,-6.6782,-6.6838,-6.6954,-6.6948,-6.7062,-6.6966,-6.6959,-6.6951,-6.6944,-6.6955,-6.7081,-6.7084,-6.7086,-6.7088,0,-6.5767,-6.5783,-6.5892,-6.6009,-6.6099,-6.6193,-6.6282,-6.6342,-6.6383,-6.6471,-6.6601,-6.668,-6.6836,-6.696,-6.7078,-6.7131,-6.7117,-6.7118,-6.715,-6.7148,-6.7131,-6.7142,-6.6804,-6.711,-6.7108,-6.7107,-6.7105,-6.7104,-6.5948,-6.6044,-6.6136,-6.6258,-6.6328,-6.6412,-6.6508,-6.6558,-6.6667,-6.6797,-6.6806,-6.6947,-6.7036,-6.7193,-6.7252,-6.7361,-6.7328,-6.7373,-6.7385,-6.7396,-6.7405,-6.7113,-6.7383,-6.7382,-6.7382,-6.7381,-6.7381,0,-6.6205,-6.6264,-6.6376,-6.6502,-6.6598,-6.6577,-6.6675,-6.6756,-6.688,-6.6965,-6.7066,-6.7215,-6.7336,-6.7401,-6.7521,-6.7596,-6.7593,-6.7627,-6.7622,-6.7634,-6.7427,-6.7389,-6.7627,-6.7627,-6.7627,-6.7627,-6.7627,-6.7627,-6.6351,-6.6513,-6.654,-6.6737,-6.6793,-6.6932,-6.699,-6.7067,-6.7135,-6.7302,-6.7403,-6.7445,-6.7522,-6.7647,-6.7757,-6.7773,-6.7817,-6.7856,-6.7868,-6.7674,-6.7649,-6.7625,-6.7588,-6.7865,-6.7865,-6.8065,-6.8067,-6.8069]}]]